EW8311 Weather Reports


Display with metric or nautical units.
time (UTC)temp
F
wind
direction
speed
MPH
gust
MPH
rain 1hr
in
rain 24hr
in
rain mn
in
humidity
%
barometer
mb
20260510131527 70 68 0.0 1.0 0.00 0.00 0.00 22 1005.2
20260510130026 69 117 0.0 1.0 0.00 0.00 0.00 24 1005.2
20260510124524 68 117 0.0 1.0 0.00 0.00 0.00 25 1005.2
20260510123024 65 1 0.0 1.0 0.00 0.00 0.00 28 1005.1
20260510121520 65 271 0.0 0.0 0.00 0.00 0.00 30 1005.0
20260510120018 66 271 0.0 2.0 0.00 0.00 0.00 32 1004.8
20260510114515 68 136 0.0 2.0 0.00 0.00 0.00 27 1004.6
20260510113019 68 356 0.0 1.0 0.00 0.00 0.00 27 1004.3
20260510111512 68 356 0.0 0.0 0.00 0.00 0.00 27 1004.3
20260510110011 68 356 0.0 2.0 0.00 0.00 0.00 29 1004.2
20260510104509 68 356 0.0 1.0 0.00 0.00 0.00 28 1004.3
20260510103007 68 61 0.0 0.0 0.00 0.00 0.00 25 1004.2
20260510101508 69 61 0.0 1.0 0.00 0.00 0.00 24 1004.2
20260510100005 69 61 0.0 0.0 0.00 0.00 0.00 28 1004.1
20260510094500 70 61 0.0 1.0 0.00 0.00 0.00 27 1004.0
20260510093100 70 61 0.0 0.0 0.00 0.00 0.00 25 1004.0
20260510091554 71 61 0.0 0.0 0.00 0.00 0.00 23 1004.0
20260510090056 72 61 0.0 0.0 0.00 0.00 0.00 23 1004.0
20260510084557 73 61 0.0 1.0 0.00 0.00 0.00 20 1004.0
20260510083054 72 100 0.0 0.0 0.00 0.00 0.00 22 1004.1
20260510081549 75 101 0.0 1.0 0.00 0.00 0.00 21 1004.1
20260510080049 76 101 0.0 3.0 0.00 0.00 0.00 23 1004.0
20260510074601 76 168 0.0 7.0 0.00 0.00 0.00 19 1004.1
20260510073047 75 110 0.0 2.0 0.00 0.00 0.00 21 1004.4
20260510071553 74 111 0.0 2.0 0.00 0.00 0.00 28 1004.3
20260510070041 75 270 0.0 2.0 0.00 0.00 0.00 21 1004.2
20260510064547 74 86 0.0 0.0 0.00 0.00 0.00 23 1004.1
20260510063037 75 110 0.0 2.0 0.00 0.00 0.00 21 1003.8
20260510061538 75 319 0.0 3.0 0.00 0.00 0.00 22 1003.7
20260510060041 77 307 0.0 0.0 0.00 0.00 0.00 25 1003.2
20260510054536 78 306 0.0 0.0 0.00 0.00 0.00 20 1003.0
20260510053035 80 135 2.0 4.0 0.00 0.00 0.00 16 1002.8
20260510051540 82 118 1.0 3.0 0.00 0.00 0.00 15 1002.7
20260510050034 83 114 0.0 3.0 0.00 0.00 0.00 16 1002.7
20260510044537 86 326 1.0 4.0 0.00 0.00 0.00 13 1002.6
20260510043043 87 270 2.0 8.0 0.00 0.00 0.00 12 1002.4
20260510041535 87 28 1.0 7.0 0.00 0.00 0.00 12 1002.3
20260510040032 86 199 1.0 5.0 0.00 0.00 0.00 12 1002.2
20260510034533 86 110 2.0 8.0 0.00 0.00 0.00 12 1002.0
20260510033031 85 244 0.0 4.0 0.00 0.00 0.00 13 1001.8
20260510031531 84 298 0.0 1.0 0.00 0.00 0.00 15 1001.7
20260510030030 87 297 0.0 2.0 0.00 0.00 0.00 12 1001.4
20260510024529 88 330 1.0 9.0 0.00 0.00 0.00 11 1001.3
20260510023029 87 333 2.0 4.0 0.00 0.00 0.00 13 1001.3
20260510021531 88 344 2.0 3.0 0.00 0.00 0.00 11 1001.1
20260510020027 90 322 1.0 4.0 0.00 0.00 0.00 11 1000.9
20260510014529 92 345 2.0 8.0 0.00 0.00 0.00 9 1000.8
20260510013028 93 318 4.0 9.0 0.00 0.00 0.00 9 1000.8
20260510011533 94 325 3.0 8.0 0.00 0.00 0.00 9 1000.8
20260510010034 94 310 3.0 9.0 0.00 0.00 0.00 9 1000.7
20260510004522 94 313 5.0 12.0 0.00 0.00 0.00 9 1000.8
20260510003024 96 315 0.0 6.0 0.00 0.00 0.00 9 1000.8
20260510001524 95 328 5.0 11.0 0.00 0.00 0.00 8 1000.9
20260510000020 96 335 1.0 11.0 0.00 0.00 0.00 9 1000.9
20260509234517 95 338 6.0 14.0 0.00 0.00 0.00 10 1001.1
20260509233015 96 302 3.0 9.0 0.00 0.00 0.00 8 1001.2
20260509231523 96 298 6.0 12.0 0.00 0.00 0.00 9 1001.3
20260509230011 96 322 5.0 9.0 0.00 0.00 0.00 9 1001.5
20260509224511 96 259 4.0 13.0 0.00 0.00 0.00 10 1001.6
20260509223008 96 302 7.0 13.0 0.00 0.00 0.00 10 1001.7
20260509221518 96 255 5.0 11.0 0.00 0.00 0.00 9 1002.0
20260509220004 97 95 3.0 8.0 0.00 0.00 0.00 10 1002.0
20260509214503 97 322 5.0 14.0 0.00 0.00 0.00 10 1002.3
20260509213102 96 210 3.0 8.0 0.00 0.00 0.00 10 1002.6
20260509211558 97 319 2.0 8.0 0.00 0.00 0.00 11 1002.7
20260509210100 95 239 2.0 6.0 0.00 0.00 0.00 11 1002.9
20260509204559 96 326 2.0 9.0 0.00 0.00 0.00 12 1003.2
20260509203055 96 315 3.0 9.0 0.00 0.00 0.00 12 1003.5
20260509201551 95 273 4.0 10.0 0.00 0.00 0.00 11 1003.7
20260509200048 96 321 3.0 8.0 0.00 0.00 0.00 12 1003.9
20260509194545 95 120 0.0 7.0 0.00 0.00 0.00 12 1004.2
20260509193046 93 235 1.0 6.0 0.00 0.00 0.00 13 1004.5
20260509191557 91 219 1.0 7.0 0.00 0.00 0.00 15 1004.6
20260509190046 91 231 2.0 5.0 0.00 0.00 0.00 15 1004.8
20260509184537 91 278 1.0 5.0 0.00 0.00 0.00 16 1005.0
20260509183038 90 94 1.0 3.0 0.00 0.00 0.00 16 1005.3
20260509181528 88 314 2.0 4.0 0.00 0.00 0.00 16 1005.6
20260509180024 87 229 0.0 3.0 0.00 0.00 0.00 17 1005.9
20260509174524 86 278 0.0 3.0 0.00 0.00 0.00 18 1006.0
20260509173021 85 267 1.0 4.0 0.00 0.00 0.00 19 1006.1
20260509171518 85 291 1.0 3.0 0.00 0.00 0.00 19 1006.2
20260509170027 85 325 0.0 4.0 0.00 0.00 0.00 20 1006.2
20260509164513 83 224 2.0 5.0 0.00 0.00 0.00 20 1006.3
20260509163011 82 263 0.0 1.0 0.00 0.00 0.00 21 1006.3
20260509161509 81 326 0.0 3.0 0.00 0.00 0.00 22 1006.4
20260509160011 81 295 0.0 1.0 0.00 0.00 0.00 23 1006.5
20260509154504 79 350 0.0 1.0 0.00 0.00 0.00 26 1006.4
20260509153102 78 290 0.0 1.0 0.00 0.00 0.00 28 1006.5
20260509151605 76 244 0.0 1.0 0.00 0.00 0.00 29 1006.5
20260509150055 76 226 0.0 0.0 0.00 0.00 0.00 28 1006.4
20260509144552 73 223 0.0 0.0 0.00 0.00 0.00 33 1006.5
20260509143049 71 199 0.0 0.0 0.00 0.00 0.00 35 1006.5
20260509141550 71 82 0.0 0.0 0.00 0.00 0.00 35 1006.4
20260509140046 69 83 0.0 0.0 0.00 0.00 0.00 39 1006.3
20260509134554 67 83 0.0 1.0 0.00 0.00 0.00 38 1006.3
20260509133042 64 91 0.0 0.0 0.00 0.00 0.00 42 1006.0